Weather in Demyanovka

Russia / Kemerovo Oblast     54°44′59″N   86°14′39″E
temp.,
°C
wind,
m/s
gust,
m/s
humid.,
%
clouds,
%
prec.,
mm/h
press.,
hPa
HPBL,
m
19 april, mon
mon1901:00+5ssw61376100 1.3 1003418
04:00+3sw71493100 2.9 10001027
07:000w11187550 3.3 10011259
10:00−5wnw111670100 0.1 10091326
13:00−5nw91264100 0.2 10171355
16:00−4nw6856100 0.1 10201688
19:00−5nnw6760100 0.1 10221194
22:00−7nnw466661 0.0 1024796
20 april, tue
tue2001:00−7nnw466482 0.0 1025815
04:00−8nnw456184 0.0 1025872
07:00−8nw466031 0.0 1026912
10:00−6nw5548100 0.0 10271431
13:00−4wnw4546100 0.1 10261607
16:00−3nw4642100 0.1 10261801
19:00−3nnw354398 0.1 10251484
22:00−5ese11616 0.0 102671
21 april, wed
wed2101:00−4s245751 0.0 1026175
04:00−5ssw3560100 0.0 1025234
07:00−4ssw3555100 0.0 1024407
10:00−2ssw3440100 0.0 10241208
13:000s2233100 0.0 10241763
16:00+1ene3237100 0.0 10231782
19:00−1ene3556100 0.0 1025455
22:00−3nne377469 0.0 1027208
22 april, thu
thu2201:00−4nne497536 0.0 1028286
04:00−5nne51167100 0.0 1030285
07:00−5nne612681 0.0 1032326
10:000nne710584 0.0 1034956
13:00+2ne785094 0.0 10361884
16:00+2ne785697 0.1 10371534
19:00+1nne68655 0.1 10391002
22:00−2nne411825 0.0 1041311
23 april, fri
fri2301:00−2nne412845 0.0 1041360
04:00−3nne512845 0.0 1041320
07:00−2nne613805 0.0 1041389
10:00+2ne812600 0.0 1041786
13:00+5ne9125618 0.0 10391388
16:00+6ne9125566 0.0 10381678
19:00+5ne71265100 0.0 1038935
22:00+2ne71472100 0.0 1038533